Regional Weather Roundup
Issued by NWS

Home | Current Version | Previous Version | Text Only | Print | Product List | Glossary On
Versions: 1 2 3 4 5 6 7 8 9 10 11 12 13 14 15 16 17 18 19 20 21 22 23 24 25 26 27 28 29 30 31 32 33 34 35 36 37 38 39 40 41 42 43 44 45 46 47 48 49 50
000
ASUS46 KSTO 171315
RWRCA

NORTHERN AND CENTRAL CA REGIONAL WEATHER ROUNDUP
NATIONAL WEATHER SERVICE SACRAMENTO CA
600 AM PDT THU AUG 17 2017

NOTE: FAIR INDICATES FEW OR NO CLOUDS BELOW 12,000 FEET WITH NO
SIGNIFICANT WEATHER AND/OR OBSTRUCTIONS TO VISIBILITY.

CAZ001-003-171400-
NORTHWEST AREA

CITY           SKY/WX    TMP DP  RH WIND       PRES   REMARKS
CRESCENT CITY  CLEAR     55  52  89 N7        29.97S
UKIAH          CLEAR     57  54  89 S3        29.98R
$$

CAZ006-505>513-171400-
BAY AREA

CITY           SKY/WX    TMP DP  RH WIND       PRES   REMARKS
SANTA ROSA     CLOUDY    58  55  90 CALM      29.97S
SAN RAFAEL     N/A       59  MM  MM MISG
NAPA           PTCLDY    58  56  93 W6        29.98R
CONCORD        CLEAR     61  57  87 W6        29.97S
OAKLAND CITY   N/A      MM  MM  MM MISG
OAKLAND        CLOUDY    61  58  90 N3        29.98S
SAN FRAN CITY  N/A       60  MM  84 MISG
SAN FRAN ARPT  MOCLDY    61  55  81 CALM      29.97S
LIVERMORE      PTCLDY    60  56  86 NW5       29.97S
HAYWARD        CLOUDY    63  55  75 CALM      29.97S
REDWOOD CITY   N/A       63  MM  83 MISG
MOFFETT ARPT   CLEAR     60  56  86 SE5       29.98S
SAN JOSE ARPT  CLEAR     61  56  83 SE6       29.98S
$$
CAZ034-037-514>518-171400-
CENTRAL COAST

CITY           SKY/WX    TMP DP  RH WIND       PRES   REMARKS
WATSONVILLE    CLOUDY    60  56  86 CALM      30.00R
SALINAS        CLOUDY    61  56  83 CALM      29.99R
MONTEREY       CLOUDY    60  56  86 CALM      30.00R
SAN LUIS OBISP CLOUDY    60  56  86 N5        29.99S
SANTA MARIA    CLOUDY    55  55 100 CALM      30.00R FOG
$$
CAZ015-016-171400-
NORTHERN SACRAMENTO VALLEY

CITY           SKY/WX    TMP DP  RH WIND       PRES   REMARKS
REDDING        CLEAR     67  59  75 CALM      29.94R
RED BLUFF      CLEAR     68  61  78 NW3       29.95R
OROVILLE       CLEAR     68  59  73 E3        29.96R
$$
CAZ016>018-171400-
SOUTHERN SACRAMENTO VALLEY

CITY           SKY/WX    TMP DP  RH WIND       PRES   REMARKS
AUBURN         CLEAR     66  61  82 CALM      29.99R
BEALE AFB      CLEAR     65  56  74 CALM      29.93R
LINCOLN        FAIR      63  54  72 S5        29.94R
MARYSVILLE     CLEAR     63  57  81 CALM      29.95R
SAC INTL ARPT  CLEAR     62  57  83 SE5       29.93R
MATHER AIRPORT CLEAR     61  57  88 S6        29.94S
DOWNTOWN SAC   N/A       62  MM  MM MISG
SAC EXEC ARPT  CLEAR     61  58  90 S3        29.94R
VACAVILLE      CLEAR     63  56  78 SW5       29.95R
TRAVIS AFB     CLEAR     59  56  88 SW14      29.93R
$$
CAZ019>021-171400-
SAN JOAQUIN VALLEY

CITY           SKY/WX    TMP DP  RH WIND       PRES   REMARKS
STOCKTON       CLEAR     62  58  86 NW6       29.94R
MODESTO        CLEAR     66  58  75 NW7       29.93R
MERCED         CLEAR     66  57  72 NW3       29.93R
LEMOORE        CLEAR     65  52  62 NW7       29.94R
FRESNO         CLEAR     68  58  70 NW7       29.94R
HANFORD        CLEAR     67  58  72 NW7       29.94R
PORTERVILLE      N/A     66  57  72 SE5       29.94R
BAKERSFIELD    CLEAR     74  57  55 SE3       29.94R
$$
CAZ011-012-071-171400-
NORTHERN MOUNTAINS

CITY           SKY/WX    TMP DP  RH WIND       PRES   REMARKS
YREKA          CLEAR     55  42  61 SW3       30.15R
MOUNT SHASTA   CLEAR     62  45  53 CALM      30.15R
ALTURAS        CLEAR     46  40  79 S3        30.21R
$$
CAZ011-012-071-171400-
SIERRA NEVADA MTNS

CITY           SKY/WX    TMP DP  RH WIND       PRES   REMARKS
BLUE CANYON    CLEAR     68  37  32 CALM      30.20R
TRUCKEE        CLEAR     43  43 100 CALM      30.29R
TAHOE VLY ARPT CLEAR     45  42  89 SW3       30.28R
MAMMOTH LAKES  FAIR      49  38  65 N5        30.33R
$$




USA.gov is the U.S. government's official web portal to all federal, state and local government web resources and services.